Вернуться в каталог

FENGYUN 1C DEB

АктивенSSO
NORAD 32323·DEBRIS·🇨🇳 China

Запущен May 10, 1999 с Taiyuan Satellite Launch Center

Loading…

Ближайшие Пролёты (ближайшие 24 часа)

TLE

СвежийSource: Space-Track

Эпоха: Sep 14, 2026, 03:35 UTC

1 32323U 99025CXQ 26257.14953840  .00003382  00000-0  21578-2 0  9995
2 32323  98.5841  27.3214 0153473 161.9427 198.7273 13.98550100641170

Отслеживайте FENGYUN 1C DEB в реальном времени с AllMySat

Download on the App Store